Vorticity
4 1 11 6 8 8 -2 6 6 -3 2 6 6 1 19 -6 0 1 28 2 0 11 8 6 7 13 3 8 -4 2 2 2 7 8 5 6 9 4 7 8 5 7 8 6 5 6 6 6 6
10 23 13 8 15 5 5 9 12 12 2 15 12 5 10 5 -0 28 4 10 13 13 8 11 9 16 10 7 13 2 4 6 6 7 13 10 7 10 9 8 7 5 5 5 6 5 5 8 8
4 9 0 9 5 3 8 4 7 4 3 10 19 13 5 21 19 12 14 18 17 12 10 7 10 14 16 8 8 5 8 6 3 6 5 8 8 4 4 5 4 6 6 6 5 5 9 6 8
5 4 5 24 -5 7 1 4 6 0 4 7 16 22 22 14 9 19 18 14 12 11 11 14 11 3 7 13 18 2 -1 7 3 6 8 6 5 7 8 5 6 5 6 6 6 7 4 7 8
4 16 6 -1 8 13 9 4 -2 1 -3 10 21 15 7 2 7 3 13 16 16 22 18 10 7 6 4 5 19 32 -10 2 5 6 7 5 7 5 4 5 6 6 5 8 7 5 5 9 5
11 3 23 -7 -3 13 7 2 0 -0 4 11 24 -3 -3 -1 6 -0 5 2 -3 18 22 9 8 10 10 10 11 30 23 -2 4 7 6 6 6 7 6 6 6 7 8 8 9 9 9 6 5
6 -7 16 3 -3 6 8 -0 -2 -3 8 9 17 6 7 -1 7 1 -1 3 5 3 -1 28 15 10 11 1 -3 -7 -1 0 9 6 7 3 7 6 5 7 9 8 9 8 7 9 6 7 4
13 34 23 4 4 13 5 5 11 -4 1 3 15 -1 19 7 10 11 5 0 2 -2 -4 18 -3 9 6 -0 5 7 10 4 6 10 7 6 7 5 7 9 8 10 5 5 5 6 5 6 6
23 6 34 -6 -3 11 17 6 11 -1 4 2 14 22 7 2 17 12 3 10 5 4 1 -9 -12 2 17 13 16 6 9 5 7 2 4 4 5 5 9 8 7 4 4 4 5 6 6 7 5
15 12 28 19 8 9 7 13 8 2 4 6 4 20 9 11 -3 17 12 14 10 8 4 4 5 5 -5 -9 -3 1 8 9 4 5 5 6 6 6 7 7 5 5 5 5 7 8 9 7 4
10 14 5 3 2 2 10 5 -1 -1 5 -7 -4 13 11 12 1 3 -3 1 13 6 8 7 6 7 9 10 9 9 8 6 7 6 6 7 6 6 6 5 5 4 3 6 7 12 8 3 5
5 15 9 -9 -2 3 4 5 5 5 -16 7 -1 21 27 6 17 24 9 9 32 10 8 8 5 6 6 8 9 8 7 9 8 6 7 7 5 6 5 4 4 4 5 11 13 9 4 5 5
11 5 17 11 7 15 6 12 1 3 9 3 9 18 4 3 3 3 8 11 7 7 11 5 5 6 6 7 7 7 8 7 9 7 6 6 5 5 4 5 3 3 3 5 5 5 5 6 6
-8 8 8 5 9 17 7 25 18 4 13 7 19 12 3 4 4 10 11 6 9 17 4 18 6 7 9 8 6 6 6 5 7 8 7 7 7 5 5 4 3 5 9 8 5 5 6 8 6
9 6 3 -1 12 12 24 -4 7 5 9 5 4 10 5 -0 -4 2 3 4 3 20 12 19 7 6 9 17 6 8 8 12 10 7 8 7 6 4 5 8 7 5 16 6 4 8 11 10 8
10 2 0 9 7 18 -11 6 3 7 6 -3 4 4 5 20 2 -2 3 5 1 13 13 7 17 2 -2 -9 12 8 9 7 6 7 7 7 7 6 4 5 6 7 12 5 6 7 9 7 8
8 2 7 -4 7 -3 18 15 5 4 8 11 3 4 0 6 18 12 0 5 -4 4 15 4 13 7 12 23 6 8 8 6 13 5 8 9 10 10 6 4 -1 6 9 5 5 6 5 6 6
11 1 -8 3 -0 6 7 10 9 16 6 6 0 -2 9 3 4 7 7 3 3 4 11 4 7 4 14 6 11 6 13 7 5 10 5 5 6 5 6 7 9 5 7 7 5 4 2 3 4
22 21 -3 0 16 15 4 18 -1 11 12 13 -4 6 -5 -3 -3 5 11 5 7 10 10 6 4 8 8 3 5 5 6 0 0 4 3 5 6 6 6 7 6 7 6 7 5 5 3 3 3
-1 -2 1 1 11 18 -3 15 16 7 5 16 19 13 4 4 -12 0 3 14 12 8 11 11 6 6 6 8 10 8 8 7 8 8 7 10 16 7 6 14 4 9 8 7 2 3 5 3 6
2 1 -1 -2 13 16 2 3 11 7 8 8 12 17 7 5 8 2 8 1 3 9 16 6 6 9 8 5 10 10 8 9 2 13 11 11 9 11 4 7 15 10 8 5 7 4 6 2 9
6 -2 8 36 18 -7 21 -2 5 18 12 10 10 8 7 12 15 13 -2 4 15 5 9 9 8 10 6 8 5 7 15 7 16 7 3 4 9 12 2 1 10 10 7 0 6 -2 4 6 -10
9 24 6 13 7 3 11 0 -14 20 17 23 15 11 7 6 9 16 5 1 -2 2 9 9 8 12 8 8 13 11 17 11 6 8 8 3 3 8 9 6 8 15 9 6 -1 3 6 1 -0
13 10 22 17 2 4 0 -0 15 17 12 -4 10 31 12 5 13 11 6 10 2 2 1 0 6 8 11 9 8 13 9 9 7 10 7 13 10 8 5 11 6 9 11 13 3 16 13 5 8
4 8 7 4 15 -0 6 26 -9 6 7 9 26 19 25 8 2 17 13 4 4 3 8 4 6 7 10 14 8 8 12 3 8 10 18 7 10 14 14 15 1 8 -0 25 18 3 8 4 7
1 -10 -14 10 8 8 21 13 2 4 11 12 25 11 11 21 7 2 20 11 7 2 12 2 13 6 1 3 19 8 10 5 9 5 7 12 9 6 6 8 11 8 3 0 -3 11 -3 11 4
9 14 7 3 16 5 9 11 13 19 9 12 14 20 11 29 -2 6 8 17 19 19 7 2 -5 -7 3 -2 1 21 8 10 6 7 6 16 11 12 8 9 8 11 14 10 13 5 5 5 6
-0 28 12 15 1 6 17 8 -1 12 14 14 12 19 7 7 14 6 7 11 16 23 8 4 27 5 -2 0 -6 0 18 10 8 8 7 8 9 5 9 9 8 10 15 8 10 13 7 6 9
-0 -1 -4 24 5 6 7 22 14 13 -5 5 2 2 6 6 16 7 8 9 16 13 13 28 43 -11 6 2 22 5 1 14 13 4 8 8 1 8 6 10 14 11 6 10 10 9 9 9 8
12 8 19 -4 3 7 5 5 14 -2 1 6 4 1 -2 10 22 22 6 0 -4 19 23 18 -9 -8 6 5 1 6 0 4 17 12 5 6 6 3 4 4 7 6 6 7 6 7 7 5 7
Height
3160 3160 3159 3159 3164 3161 3160 3162 3160 3160 3159 3158 3157 3157 3158 3158 3159 3163 3158 3158 3160 3161 3161 3161 3165 3167 3170 3173 3176 3179 3183 3185 3185 3189 3191 3193 3194 3196 3197 3198 3198 3200 3201 3202 3202 3203 3204 3204 3205
3160 3160 3159 3159 3161 3161 3162 3162 3162 3161 3160 3158 3157 3157 3157 3159 3159 3159 3159 3158 3160 3161 3162 3164 3166 3169 3170 3173 3176 3179 3183 3185 3187 3190 3192 3194 3195 3197 3198 3200 3201 3202 3203 3205 3205 3206 3206 3206 3206
3160 3160 3160 3160 3161 3161 3162 3163 3162 3162 3161 3158 3157 3157 3157 3159 3160 3159 3159 3159 3160 3162 3163 3166 3167 3169 3171 3174 3177 3179 3180 3184 3188 3192 3192 3195 3197 3198 3200 3202 3203 3203 3205 3207 3207 3208 3208 3207 3208
3159 3160 3161 3160 3161 3163 3163 3164 3165 3164 3162 3161 3159 3159 3160 3160 3162 3162 3160 3160 3161 3162 3164 3166 3168 3170 3173 3176 3178 3179 3181 3185 3189 3192 3195 3197 3198 3199 3200 3204 3204 3206 3206 3208 3209 3210 3209 3210 3210
3159 3159 3160 3160 3161 3163 3163 3165 3166 3165 3164 3162 3161 3161 3160 3162 3164 3165 3164 3164 3164 3165 3166 3168 3171 3173 3174 3177 3178 3178 3182 3185 3189 3194 3196 3199 3200 3200 3202 3205 3205 3206 3208 3209 3211 3211 3212 3212 3212
3159 3160 3159 3159 3161 3163 3165 3166 3166 3167 3166 3164 3163 3162 3162 3164 3166 3167 3168 3168 3169 3169 3169 3172 3174 3176 3177 3179 3180 3180 3184 3186 3192 3196 3200 3201 3201 3203 3204 3206 3208 3210 3210 3211 3212 3213 3214 3214 3214
3159 3158 3157 3158 3162 3162 3166 3167 3168 3169 3168 3167 3166 3165 3166 3166 3168 3170 3171 3172 3173 3173 3174 3175 3178 3180 3182 3184 3186 3186 3189 3193 3198 3199 3202 3203 3204 3205 3207 3208 3210 3211 3212 3213 3214 3215 3216 3216 3216
3159 3156 3154 3158 3162 3165 3166 3168 3169 3171 3170 3169 3169 3169 3169 3168 3170 3172 3174 3175 3176 3177 3178 3179 3182 3183 3187 3188 3190 3193 3196 3198 3199 3203 3204 3205 3207 3208 3210 3211 3212 3213 3215 3215 3216 3217 3218 3218 3218
3158 3158 3156 3157 3163 3164 3166 3168 3169 3171 3171 3171 3170 3169 3171 3171 3172 3173 3176 3178 3179 3180 3182 3184 3187 3188 3189 3191 3193 3196 3199 3201 3202 3205 3206 3208 3209 3210 3212 3213 3215 3216 3217 3218 3218 3219 3220 3220 3221
3160 3160 3159 3162 3164 3164 3165 3168 3168 3171 3171 3172 3172 3171 3172 3173 3174 3175 3178 3179 3181 3183 3185 3187 3189 3192 3194 3196 3197 3197 3201 3203 3204 3206 3208 3210 3211 3212 3213 3215 3217 3219 3219 3220 3220 3221 3222 3223 3223
3162 3163 3163 3163 3164 3165 3166 3167 3168 3170 3172 3174 3173 3173 3173 3173 3175 3177 3179 3181 3182 3183 3186 3188 3190 3192 3195 3197 3199 3201 3202 3204 3205 3207 3209 3211 3212 3214 3215 3216 3218 3220 3220 3221 3222 3223 3223 3225 3225
3164 3164 3165 3165 3165 3166 3167 3169 3169 3171 3175 3175 3175 3175 3175 3176 3178 3178 3180 3182 3182 3184 3186 3190 3191 3193 3195 3197 3199 3201 3204 3206 3207 3208 3210 3212 3214 3216 3217 3218 3220 3221 3222 3223 3223 3224 3225 3226 3226
3164 3165 3165 3165 3165 3165 3167 3168 3170 3172 3174 3176 3176 3177 3177 3178 3179 3180 3181 3182 3185 3186 3188 3190 3192 3194 3196 3198 3200 3202 3204 3207 3208 3209 3211 3213 3215 3217 3218 3219 3221 3222 3223 3224 3225 3227 3227 3227 3228
3164 3165 3165 3165 3165 3165 3167 3168 3170 3172 3174 3176 3177 3178 3179 3180 3180 3181 3183 3184 3186 3187 3189 3191 3193 3195 3197 3200 3201 3203 3204 3206 3208 3210 3212 3214 3216 3218 3219 3220 3222 3223 3224 3226 3228 3229 3230 3230 3230
3164 3165 3165 3165 3164 3165 3166 3169 3170 3171 3173 3176 3176 3178 3179 3180 3182 3182 3185 3186 3188 3188 3190 3192 3194 3196 3198 3201 3202 3204 3205 3207 3209 3211 3213 3215 3217 3218 3220 3221 3223 3224 3225 3227 3229 3230 3231 3231 3232
3163 3166 3166 3166 3165 3166 3167 3167 3169 3170 3173 3175 3176 3177 3179 3180 3181 3182 3185 3186 3188 3189 3191 3193 3195 3197 3199 3201 3203 3205 3206 3208 3210 3211 3213 3215 3218 3219 3220 3223 3224 3225 3227 3229 3230 3231 3232 3233 3234
3163 3164 3165 3165 3165 3166 3167 3167 3167 3168 3171 3174 3175 3176 3178 3179 3180 3181 3184 3186 3188 3190 3191 3193 3195 3197 3199 3200 3203 3205 3207 3209 3210 3212 3213 3215 3218 3219 3221 3223 3225 3226 3229 3231 3232 3233 3233 3234 3235
3162 3163 3164 3166 3167 3165 3165 3166 3167 3168 3169 3171 3174 3175 3177 3179 3181 3182 3183 3186 3188 3190 3191 3192 3195 3197 3199 3200 3203 3205 3208 3210 3211 3212 3213 3215 3217 3219 3221 3222 3224 3226 3228 3231 3233 3233 3234 3235 3236
3162 3163 3164 3164 3164 3165 3165 3165 3166 3167 3168 3168 3170 3172 3174 3177 3180 3182 3183 3185 3187 3189 3191 3192 3194 3197 3199 3201 3203 3205 3207 3210 3211 3213 3215 3215 3217 3217 3219 3221 3223 3225 3228 3230 3232 3233 3235 3236 3236
3161 3162 3162 3163 3162 3163 3164 3164 3165 3165 3165 3166 3167 3169 3171 3175 3178 3180 3182 3183 3185 3188 3190 3191 3193 3195 3198 3201 3203 3204 3206 3208 3210 3212 3213 3215 3216 3217 3218 3220 3222 3224 3226 3229 3231 3233 3235 3237 3238
3159 3160 3160 3162 3162 3163 3163 3162 3162 3163 3163 3164 3165 3166 3169 3171 3175 3179 3180 3182 3185 3187 3189 3190 3192 3194 3196 3199 3201 3203 3204 3206 3209 3211 3212 3214 3215 3216 3217 3219 3221 3222 3225 3227 3229 3232 3233 3235 3237
3156 3158 3159 3157 3159 3162 3163 3162 3159 3160 3160 3160 3162 3162 3164 3168 3172 3175 3179 3181 3183 3186 3187 3189 3190 3192 3194 3196 3198 3201 3204 3206 3208 3210 3211 3213 3214 3215 3216 3218 3220 3221 3223 3226 3228 3230 3231 3232 3234
3155 3156 3155 3155 3157 3161 3161 3163 3157 3157 3157 3158 3159 3160 3162 3164 3167 3171 3176 3180 3183 3185 3187 3188 3189 3190 3193 3195 3197 3199 3201 3205 3206 3206 3208 3210 3212 3214 3215 3216 3218 3220 3222 3224 3226 3228 3229 3230 3232
3152 3152 3152 3155 3157 3160 3160 3162 3154 3155 3156 3156 3156 3157 3159 3161 3164 3168 3173 3177 3179 3183 3184 3187 3188 3189 3191 3193 3195 3197 3200 3203 3204 3205 3206 3209 3210 3211 3213 3215 3217 3218 3220 3222 3223 3225 3226 3227 3228
3148 3149 3153 3158 3160 3160 3158 3159 3155 3154 3153 3152 3151 3152 3154 3158 3161 3164 3167 3172 3175 3179 3181 3183 3186 3188 3189 3191 3193 3195 3197 3199 3202 3204 3205 3206 3207 3209 3212 3213 3215 3216 3218 3218 3220 3222 3223 3224 3225
3146 3147 3149 3156 3160 3155 3156 3155 3154 3153 3152 3151 3151 3151 3153 3155 3159 3160 3164 3168 3171 3175 3179 3181 3184 3186 3187 3189 3191 3192 3195 3196 3199 3201 3203 3205 3205 3207 3209 3211 3212 3214 3215 3217 3218 3219 3221 3222 3224
3143 3144 3147 3147 3150 3152 3153 3153 3152 3152 3152 3151 3152 3152 3153 3154 3157 3159 3160 3163 3166 3169 3174 3177 3180 3182 3184 3186 3188 3190 3192 3194 3196 3199 3201 3202 3204 3205 3206 3208 3210 3211 3212 3214 3216 3216 3218 3219 3221
3140 3142 3144 3144 3151 3153 3151 3151 3150 3151 3151 3152 3152 3153 3154 3153 3155 3156 3157 3159 3162 3164 3169 3173 3175 3175 3178 3182 3185 3187 3188 3190 3193 3195 3197 3200 3202 3203 3205 3206 3208 3208 3209 3210 3212 3214 3216 3217 3218
3138 3138 3140 3142 3144 3146 3151 3148 3148 3149 3150 3151 3152 3153 3153 3153 3153 3153 3154 3156 3157 3159 3163 3168 3166 3170 3171 3176 3180 3183 3185 3186 3187 3190 3193 3196 3199 3200 3202 3203 3204 3206 3207 3208 3209 3211 3213 3214 3214
3134 3135 3137 3139 3142 3142 3143 3144 3144 3146 3148 3150 3151 3151 3151 3152 3152 3152 3152 3153 3155 3158 3160 3162 3166 3166 3166 3169 3170 3176 3179 3181 3182 3184 3188 3191 3194 3196 3198 3199 3201 3202 3204 3205 3206 3207 3209 3209 3210